TimeCDT,TemperatureF,Dew PointF,Humidity,Sea Level PressureIn,VisibilityMPH,Wind Direction,Wind SpeedMPH,Gust SpeedMPH,PrecipitationIn,Events,Conditions,WindDirDegrees,DateUTC
12:15 AM,55.4,55.4,100,30.08,2.0,Calm,Calm,-,N/A,,Clear,0,2012-10-10 05:15:00
12:35 AM,55.4,55.4,100,30.08,5.0,Calm,Calm,-,N/A,,Clear,0,2012-10-10 05:35:00
12:55 AM,55.4,55.4,100,30.08,7.0,Calm,Calm,-,N/A,,Clear,0,2012-10-10 05:55:00
1:15 AM,55.4,55.4,100,30.08,3.0,Calm,Calm,-,N/A,,Clear,0,2012-10-10 06:15:00
1:35 AM,55.4,55.4,100,30.08,2.5,Calm,Calm,-,N/A,,Clear,0,2012-10-10 06:35:00
1:55 AM,55.4,55.4,100,30.08,1.5,Calm,Calm,-,N/A,,Mist,0,2012-10-10 06:55:00
2:15 AM,55.4,55.4,100,30.08,7.0,Calm,Calm,-,N/A,,Clear,0,2012-10-10 07:15:00
2:35 AM,55.4,55.4,100,30.09,7.0,Calm,Calm,-,N/A,,Clear,0,2012-10-10 07:35:00
2:55 AM,55.4,55.4,100,30.09,7.0,Calm,Calm,-,N/A,,Scattered Clouds,0,2012-10-10 07:55:00
3:15 AM,59.0,59.0,100,30.09,10.0,Calm,Calm,-,N/A,,Mostly Cloudy,0,2012-10-10 08:15:00
3:35 AM,59.0,59.0,100,30.09,10.0,Calm,Calm,-,N/A,,Overcast,0,2012-10-10 08:35:00
3:55 AM,59.0,59.0,100,30.10,10.0,NNW,3.5,-,N/A,,Overcast,330,2012-10-10 08:55:00
4:15 AM,60.8,60.8,100,30.10,10.0,Calm,Calm,-,N/A,,Mostly Cloudy,0,2012-10-10 09:15:00
4:35 AM,60.8,59.0,94,30.11,10.0,Calm,Calm,-,N/A,,Scattered Clouds,0,2012-10-10 09:35:00
4:55 AM,59.0,59.0,100,30.12,7.0,Calm,Calm,-,N/A,,Scattered Clouds,0,2012-10-10 09:55:00
5:15 AM,59.0,59.0,100,30.12,5.0,Calm,Calm,-,N/A,,Clear,0,2012-10-10 10:15:00
5:35 AM,59.0,57.2,94,30.12,7.0,Calm,Calm,-,N/A,,Clear,0,2012-10-10 10:35:00
5:55 AM,57.2,57.2,100,30.13,4.0,North,3.5,-,N/A,,Clear,360,2012-10-10 10:55:00
6:15 AM,57.2,55.4,94,30.13,7.0,Calm,Calm,-,N/A,,Clear,0,2012-10-10 11:15:00
6:35 AM,59.0,59.0,100,30.13,1.8,Calm,Calm,-,N/A,,Mist,0,2012-10-10 11:35:00
6:55 AM,59.0,59.0,100,30.14,7.0,Calm,Calm,-,N/A,,Clear,0,2012-10-10 11:55:00
7:15 AM,59.0,59.0,100,30.14,10.0,NNW,3.5,-,N/A,,Clear,340,2012-10-10 12:15:00
7:35 AM,60.8,60.8,100,30.14,10.0,NNW,4.6,-,N/A,,Clear,340,2012-10-10 12:35:00
7:55 AM,62.6,60.8,94,30.14,10.0,NNW,4.6,-,N/A,,Clear,340,2012-10-10 12:55:00
8:15 AM,64.4,62.6,94,30.15,10.0,North,4.6,-,N/A,,Clear,350,2012-10-10 13:15:00
8:35 AM,68.0,62.6,83,30.15,10.0,Calm,Calm,-,N/A,,Clear,0,2012-10-10 13:35:00
9:15 AM,71.6,62.6,73,30.16,10.0,Calm,Calm,-,N/A,,Clear,0,2012-10-10 14:15:00
9:35 AM,73.4,62.6,69,30.16,10.0,Calm,Calm,-,N/A,,Clear,0,2012-10-10 14:35:00
9:55 AM,75.2,60.8,61,30.17,7.0,WNW,5.8,-,N/A,,Clear,290,2012-10-10 14:55:00
10:15 AM,75.2,60.8,61,30.17,10.0,NW,6.9,-,N/A,,Clear,310,2012-10-10 15:15:00
10:35 AM,77.0,60.8,57,30.17,10.0,NW,5.8,-,N/A,,Clear,310,2012-10-10 15:35:00
10:55 AM,77.0,60.8,57,30.17,10.0,NW,6.9,-,N/A,,Clear,320,2012-10-10 15:55:00
11:15 AM,77.0,60.8,57,30.17,10.0,NW,6.9,-,N/A,,Clear,310,2012-10-10 16:15:00
11:35 AM,78.8,60.8,54,30.17,10.0,WNW,6.9,-,N/A,,Clear,300,2012-10-10 16:35:00
11:55 AM,78.8,60.8,54,30.16,10.0,NW,4.6,-,N/A,,Clear,320,2012-10-10 16:55:00
12:15 PM,78.8,62.6,57,30.15,7.0,NW,5.8,-,N/A,,Clear,310,2012-10-10 17:15:00
12:35 PM,80.6,62.6,54,30.15,10.0,NW,5.8,-,N/A,,Clear,320,2012-10-10 17:35:00
12:55 PM,80.6,62.6,54,30.14,10.0,WNW,5.8,-,N/A,,Clear,290,2012-10-10 17:55:00
1:15 PM,82.4,62.6,51,30.13,7.0,WNW,5.8,-,N/A,,Clear,290,2012-10-10 18:15:00
1:35 PM,82.4,62.6,51,30.12,7.0,WNW,6.9,-,N/A,,Clear,290,2012-10-10 18:35:00
1:55 PM,82.4,62.6,51,30.12,10.0,NW,5.8,-,N/A,,Clear,310,2012-10-10 18:55:00
2:15 PM,82.4,60.8,48,30.11,10.0,NW,6.9,-,N/A,,Clear,310,2012-10-10 19:15:00
2:35 PM,82.4,60.8,48,30.10,5.0,WNW,5.8,-,N/A,,Haze,300,2012-10-10 19:35:00
2:55 PM,82.4,60.8,48,30.10,10.0,NW,8.1,-,N/A,,Clear,310,2012-10-10 19:55:00
3:15 PM,82.4,60.8,48,30.09,10.0,NW,4.6,-,N/A,,Clear,310,2012-10-10 20:15:00
3:35 PM,82.4,60.8,48,30.09,10.0,WNW,5.8,-,N/A,,Clear,300,2012-10-10 20:35:00
3:55 PM,82.4,62.6,51,30.09,10.0,NW,5.8,-,N/A,,Clear,320,2012-10-10 20:55:00
4:15 PM,82.4,60.8,48,30.09,7.0,NNW,6.9,-,N/A,,Scattered Clouds,340,2012-10-10 21:15:00
4:35 PM,84.2,60.8,45,30.09,10.0,NNE,10.4,-,N/A,,Scattered Clouds,20,2012-10-10 21:35:00
4:55 PM,82.4,60.8,48,30.09,10.0,NNE,8.1,-,N/A,,Clear,20,2012-10-10 21:55:00
5:15 PM,82.4,60.8,48,30.09,10.0,NNE,8.1,-,N/A,,Clear,30,2012-10-10 22:15:00
5:35 PM,80.6,60.8,51,30.09,10.0,NNE,6.9,-,N/A,,Clear,20,2012-10-10 22:35:00
5:55 PM,80.6,60.8,51,30.10,7.0,North,4.6,-,N/A,,Clear,10,2012-10-10 22:55:00
6:15 PM,77.0,62.6,61,30.10,10.0,North,3.5,-,N/A,,Clear,360,2012-10-10 23:15:00
6:35 PM,73.4,62.6,69,30.11,10.0,Calm,Calm,-,N/A,,Clear,0,2012-10-10 23:35:00
6:55 PM,71.6,62.6,73,30.11,10.0,Calm,Calm,-,N/A,,Scattered Clouds,0,2012-10-10 23:55:00
7:15 PM,69.8,64.4,83,30.11,10.0,Calm,Calm,-,N/A,,Mostly Cloudy,0,2012-10-11 00:15:00
7:35 PM,68.0,64.4,88,30.12,10.0,Calm,Calm,-,N/A,,Scattered Clouds,0,2012-10-11 00:35:00
7:55 PM,68.0,64.4,88,30.13,10.0,Calm,Calm,-,N/A,,Clear,0,2012-10-11 00:55:00
8:15 PM,64.4,62.6,94,30.13,10.0,Calm,Calm,-,N/A,,Clear,0,2012-10-11 01:15:00
8:35 PM,64.4,62.6,94,30.14,10.0,Calm,Calm,-,N/A,,Clear,0,2012-10-11 01:35:00
8:55 PM,64.4,64.4,100,30.15,10.0,Calm,Calm,-,N/A,,Clear,0,2012-10-11 01:55:00
9:15 PM,64.4,62.6,94,30.15,7.0,Calm,Calm,-,N/A,,Clear,0,2012-10-11 02:15:00
9:35 PM,62.6,62.6,100,30.16,7.0,Calm,Calm,-,N/A,,Clear,0,2012-10-11 02:35:00
9:55 PM,64.4,62.6,94,30.15,10.0,NNE,3.5,-,N/A,,Clear,20,2012-10-11 02:55:00
10:15 PM,64.4,62.6,94,30.16,10.0,Calm,Calm,-,N/A,,Clear,0,2012-10-11 03:15:00
10:35 PM,64.4,62.6,94,30.16,7.0,Calm,Calm,-,N/A,,Clear,0,2012-10-11 03:35:00
10:55 PM,62.6,62.6,100,30.16,5.0,Calm,Calm,-,N/A,,Clear,0,2012-10-11 03:55:00
11:35 PM,62.6,60.8,94,30.17,7.0,Calm,Calm,-,N/A,,Clear,0,2012-10-11 04:35:00
11:55 PM,62.6,62.6,100,30.17,5.0,Calm,Calm,-,N/A,,Clear,0,2012-10-11 04:55:00